map of MAB home
MAB - Airport
Location
City:  Marabá, Pará, Brazil
Name:Joăo Correa da Rocha Airport
ICAO:SBMA
IATA:MAB

Details
Type:Airport (Aerodrome, Airfield)
Latitude:5°22'07"S (-5.368588)
Longitude:49°08'17"W (-49.138024)
Datum:WGS 1984
Elevation:357 ft (109 m)
Variation:20.59°W (WMM2015v2 magnetic declination)
-0.05° annual change
Runways:1
Longest:6562 × 148 ft (2000 × 45 m), paved

Time
Time Zone:UTC-3
Local Time:

Weather
METAR:SBMA 041400Z 01005KT 9999 BKN020 31/24 Q1013
TAF:SBMA 031600Z 0318/0406 09006KT 9999 SCT025 FEW030TCU TX31/0318Z T N25/0406Z
BECMG 0322/0324 00000KT
RMK PDU

Related Locations
Nearby:
Farthest:ROR: 12157 mi / 19565 km
Babelthuap Island [Babelthuap/Koror Airport], PW

Find:

   beyond  
but within

Other Information
Maps:
NOTAMs:
Links:
Sources:

  
  • flag of Brazil
  • flag of Pará
  

Sectional Chart

Flight Planning
at skyvector.com

Satellite Image

Google Maps Satellite view

 

Copyright © 2004-2019 Karl L. Swartz. All rights reserved.
The Great Circle Mapper name and logo are trademarks of the Great Circle Mapper.
All other trademarks mentioned herein belong to their respective owners.
Please see credits for attibutions and further copyright information.

  Follow gcmap on Facebook Follow gcmap on Twitter GCmap on LinkedIn

hCard Microformat

Geo Microformat